Regional Weather Roundup
Issued by NWS Grand Forks, ND

Home | Current Version | Previous Version | Graphics & Text | Print | Product List | Glossary On
Versions: 1 2 3 4 5 6 7 8 9 10 11 12 13 14 15 16 17 18 19 20 21 22 23 24 25 26 27 28 29 30 31 32 33 34 35 36 37 38 39 40 41 42 43 44 45 46 47 48 49 50
000
ASUS43 KFGF 140231
RWRFGF
PRAIRIE TO PINES  WEATHER ROUNDUP
NATIONAL WEATHER SERVICE EASTERN NORTH DAKOTA/GRAND FORKS ND
900 PM CDT SUN JUL 13 2014

 **SATELLITE DATA USED TO AUGMENT SKY COVER AT AUTOMATED STATIONS**
 *****  WEATHER ACROSS EASTERN NORTH DAKOTA  *****

CITY           SKY/WX    TMP DP  RH WIND       PRES   REMARKS
GRAND FORKS    MOCLDY    61  48  62 NW9       29.93S
GRAND FRKS AFB CLOUDY    63  48  58 N13       29.95S
GRAND FRKS NWS   N/A     61 N/A N/A N12         N/A
DEVILS LAKE    CLOUDY    61  45  55 NW16      29.99S
FARGO          CLOUDY    67  46  47 NW12G22   29.94R
WAHPETON ARPT  MOCLDY    68  43  40 N14       29.94S
$$

 ***** WEATHER ACROSS CENTRAL AND WESTERN NORTH DAKOTA  *****

CITY           SKY/WX    TMP DP  RH WIND       PRES   REMARKS
BISMARCK       CLEAR     69  41  36 NW16G25   30.06R
MINOT          MOCLDY    63  46  54 NW14      30.07R
JAMESTOWN      CLOUDY    66  45  46 N16G28    29.99R
MINOT AFB      MOCLDY    64  46  52 N13G23    30.07R
GARRISON         N/A     65  47  52 N14       30.08R
WILLISTON      CLEAR     69  42  37 N16       30.14R
DICKINSON      CLEAR     67  41  38 N9        30.10R
HETTINGER      CLEAR     65  46  50 NW6       30.12S
$$

 *****  OTHER AIRPORT OBSERVATIONS IN OUR AREA  *****

CITY           SKY/WX    TMP DP  RH WIND       PRES   REMARKS
WALHALLA         N/A     59  48  67 NW17G24     N/A
GRAFTON AIRPOR CLOUDY    59  46  63 NW10      29.94R
VALLEY CITY AR MOCLDY    64  48  55 N13       29.98S
CANDO          CLOUDY    59  48  67 N15       30.02S
CAVALIER APRT  CLOUDY    59  46  63 NW17G25   29.94S
GWINNER        CLEAR     64  46  52 NW8       29.98S
ROLLA          CLOUDY    57  45  62 NW16G26   30.04S
 ***** THE ABOVE OBSERVATIONS ARE NON NWS ARE NOT QUALITY
       CONTROLLED AND MAY MIS-REPORT RAIN FOR SNOW...
$$

  *****  WEATHER ACROSS NORTHERN MINNESOTA  *****

CITY           SKY/WX    TMP DP  RH WIND       PRES   REMARKS
FLAG ISLAND    CLOUDY    54  50  87 W20       29.81S
WARROAD        DRIZZLE   52  48  87 W13       29.86F
ROSEAU         CLOUDY    52  46  82 NW13G20   29.88S
HALLOCK        CLOUDY    57  52  82 N18       29.92R
THF RVR FALLS  CLOUDY    59  46  63 NW10      29.91F
BAUDETTE       LGT RAIN  53  50  89 W10G18    29.85S
WASKISH        CLOUDY    57  52  82 W15G22    29.87S
CROOKSTON      CLOUDY    61  48  63 N9        29.94R
$$
  *****  WEATHER ACROSS CENTRAL AND WEST MINNESOTA  *****

CITY           SKY/WX    TMP DP  RH WIND       PRES   REMARKS
FOSSTON        MOCLDY    57  48  72 NW7       29.93S
BEMIDJI        CLOUDY    54  51  89 W3        29.91S
PARK RAPIDS    CLOUDY    62  46  55 NW14      29.91S
ELBOW LAKE     FAIR      66  48  52 N9G17     29.93S
WADENA         CLOUDY    63  48  59 NW8       29.92S
DETROIT LAKES  MOCLDY    63  48  59 N14       29.95S
MOORHEAD       CLOUDY    66  46  48 N15       29.95R
FERGUS FALLS   MOCLDY    66  45  45 N9G23     29.94R
MORRIS MN      PTCLDY    64  46  52 NW8       29.93S
STAPLES        CLOUDY    63  48  59 NW13      29.91S
$$
  *****  WEATHER ELSEWHERE ACROSS MINNESOTA  *****

CITY           SKY/WX    TMP DP  RH WIND       PRES   REMARKS
DULUTH         MOCLDY    63  47  55 W13       29.85S
INTRNTL FALLS  LGT RAIN  53  50  89 W7        29.82F
ELY            LGT RAIN  52  50  93 W6        29.84S
CLOQUET        CLOUDY    61  48  63 W6        29.87S
WHEATON        CLEAR     64  46  52 NW8       29.96S
BRAINERD       CLOUDY    70  46  42 NW9       29.90R
HIBBING        LGT RAIN  55  49  80 W5        29.87S
ALEXANDRIA     PTCLDY    68  44  42 NW13      29.94R
SAINT CLOUD    MOCLDY    68  50  52 NW3       29.89S
MINNEAPOLIS    PTCLDY    69  47  45 NW6       29.90R
$$

  *****  WEATHER ACROSS SOUTH DAKOTA  *****

CITY           SKY/WX    TMP DP  RH WIND       PRES   REMARKS
SIOUX FALLS    CLEAR     72  55  55 NW10      29.98R
BROOKINGS      NOT AVBL
WATERTOWN      CLEAR     67  46  47 NW10      29.98S
HURON          CLEAR     66  50  56 NW8       29.99S
SISSETON         N/A     67  47  48 NW8       29.95R
ABERDEEN       CLEAR     67  41  38 NW13      30.00R
MITCHELL       CLEAR     72  52  49 N8        30.00R
PIERRE         CLEAR     71  47  42 N12       30.03R
MOBRIDGE         N/A     65  51  60 MISG      30.02S
RAPID CITY     CLEAR     73  53  49 N8        30.14R
$$

  *****  SOME WEATHER IN NEARBY STATES *****

CITY           SKY/WX    TMP DP  RH WIND       PRES   REMARKS
GLASGOW MT     CLEAR     75  43  31 NE14      30.16R
GREAT FALLS MT SUNNY     83  44  25 E13       30.20R
CHEYENNE WY    PTCLDY    72  52  49 SW13      30.30S
SCOTTSBLUFF NE CLEAR     83  59  44 CALM      30.14R
OMAHA NE       PTCLDY    81  68  64 CALM      29.97S
DES MOINES IA  PTCLDY    79  63  57 W5        29.94S
DAVENPORT IA     N/A     71  66  84 SW3       29.93S
CHICAGO IL     MOCLDY    78  64  61 W12       29.87F
EAU CLAIRE WI  PTCLDY    66  54  65 NW3       29.87S
LA CROSSE WI   CLEAR     68  57  68 SW7       29.88S
$$

  *****  SOME NATIONAL WEATHER *****

CITY           SKY/WX    TMP DP  RH WIND       PRES   REMARKS
LA GUARDIA NY  CLOUDY    77  69  76 S10       29.90S
RALEIGH NC     PTCLDY    83  67  58 S6        30.03R
ATLANTA GA     MOCLDY    80  71  74 S3        30.07R
NEW ORLEANS LA PTCLDY    81  73  76 CALM      30.03R
OKLAHOMA CITY  MOCLDY    86  62  44 NW7       29.98R
ALBUQUERQUE NM CLOUDY    76  56  49 E17       30.25R
SALT LAKE CITY PTCLDY    94  39  14 NW9       30.06F HX  90
LOS ANGELES CA MOSUNNY   74  62  66 W7        29.86S
BOISE ID       MOSUNNY  100  40  12 N8        29.94F HX  95
SEATTLE WA     CLOUDY    80  57  45 CALM      30.05F
$$

*** WEATHER ACROSS MANITOBA...SASKATCHEWAN AND ONTARIO ***
                ***ONTARIO***

CITY           SKY/WX    TMP DP  RH WIND       PRES   REMARKS
GERALDTON      MOCLDY    59  50  72 W2        29.72S
THUNDER BAY    MOCLDY    57  54  88 SW6       29.78R
SIOUX LOOKOUT  MOCLDY    52  48  87 NW5       29.76S
TORONTO        PTCLDY    73  59  60 W8        29.85R
BIG TROUT LK   MOCLDY    55  54  94 NE8G18    29.80R
PICKLE LAKE    DRIZZLE   52  48  87 W7        29.74R
DRYDEN         LGT RAIN  50  48  93 W3        29.77S
KENORA         LGT RAIN  50  48  93 NW8       29.79S
$$
                *** MANITOBA***

CITY           SKY/WX    TMP DP  RH WIND       PRES   REMARKS
BRANDON        LGT RAIN  59  46  63 N22G29    30.05R
DAUPHIN        LGT RAIN  55  52  88 N20G28    30.05R FOG
ISLAND LAKE    MOCLDY   N/A N/A N/A N8          N/A
PILOT MOUND      N/A     55  46  71 NW12        N/A
THE PAS        PTCLDY    61  48  63 NW15      30.13R
THOMPSON       PTCLDY    61  54  77 N15G21    30.09R
WINNIPEG       MOCLDY    52  48  87 NW16      29.92S
LYNN LAKE      CLEAR     59  48  67 N8        30.24R
CHURCHILL      FOG       43  41  93 NE13G18   30.22R VSB 1/2
GILLAM         PTCLDY    57  52  82 NE21      30.08R
$$
                ***SASKATCHEWAN***

CITY           SKY/WX    TMP DP  RH WIND       PRES   REMARKS
ESTEVAN        MOCLDY    63  46  55 N15       30.15R
KINDERSLEY     SUNNY     68  45  42 NE10      30.26R
LLOYDMINSTER   SUNNY     66  48  52 NE7       30.28R
PRINCE ALBERT  PTCLDY    66  48  52 NE10G20   30.23R
REGINA         PTCLDY    64  46  52 N15       30.20R
YORKTON        CLEAR     57  46  67 N13G23    30.15R
N. BATTLEFORD  SUNNY     68  50  52 NE6       30.28R
LA RONGE       MOSUNNY   64  48  55 NE5       30.27R
SASKATOON      SUNNY     66  48  52 N9        30.25S
SWIFT CURRENT  CLEAR     66  41  39 N13       30.23R
$$
NOTE: THESE ARE AUTOMATED STATIONS WITH LIMITED QUALITY CONTROL
      "FAIR" INDICATES FEW OR NO CLOUDS BELOW 12,000 FEET WITH NO
      SIGNIFICANT WEATHER AND/OR OBSTRUCTIONS TO VISIBILITY.
      SKY/WX - SKY CONDITION AND SIGNIFICANT WEATHER.
      TMP - AIR TEMPERATURE.    DP   - DEWPOINT TEMPERATURE.
      RH  - RELATIVE HUMIDITY.  PRES - PRESSURE.
      HX  - HEAT INDEX.         WCI  - WIND CHILL INDEX.
$



USA.gov is the U.S. government's official web portal to all federal, state and local government web resources and services.